| time (UTC) | temp F | wind direction | speed MPH | gust MPH | rain 1hr in | rain 24hr in | rain mn in | humidity % | barometer mb |
| 20260506134504 | 51 | 111 | 7.0 | 17.0 | 0.00 | 0.00 | 0.00 | 47 | 1011.2 |
| 20260506133005 | 51 | 108 | 5.0 | 14.0 | 0.00 | 0.00 | 0.00 | 46 | 1011.2 |
| 20260506123005 | 52 | 68 | 9.0 | 17.0 | 0.00 | 0.00 | 0.00 | 42 | 1011.2 |
| 20260506120004 | 53 | 75 | 9.0 | 14.0 | 0.00 | 0.00 | 0.00 | 42 | 1011.3 |
| 20260506114504 | 52 | 59 | 6.0 | 20.0 | 0.00 | 0.00 | 0.00 | 45 | 1011.4 |
| 20260506111505 | 52 | 92 | 5.0 | 14.0 | 0.00 | 0.00 | 0.00 | 47 | 1011.6 |
| 20260506110004 | 51 | 86 | 7.0 | 13.0 | 0.00 | 0.00 | 0.00 | 47 | 1011.6 |
| 20260506104505 | 51 | 69 | 7.0 | 15.0 | 0.00 | 0.00 | 0.00 | 48 | 1011.7 |
| 20260506103005 | 51 | 78 | 7.0 | 15.0 | 0.00 | 0.00 | 0.00 | 48 | 1011.8 |
| 20260506100006 | 51 | 69 | 8.0 | 15.0 | 0.00 | 0.00 | 0.00 | 50 | 1011.7 |
| 20260506094504 | 51 | 84 | 9.0 | 14.0 | 0.00 | 0.00 | 0.00 | 49 | 1011.6 |
| 20260506091504 | 51 | 86 | 4.0 | 13.0 | 0.00 | 0.00 | 0.00 | 52 | 1011.6 |
| 20260506090004 | 51 | 66 | 7.0 | 14.0 | 0.00 | 0.00 | 0.00 | 49 | 1011.6 |
| 20260506083005 | 51 | 75 | 4.0 | 13.0 | 0.00 | 0.00 | 0.00 | 51 | 1011.3 |
| 20260506081505 | 51 | 91 | 3.0 | 12.0 | 0.00 | 0.00 | 0.00 | 52 | 1011.3 |
| 20260506071504 | 50 | 85 | 7.0 | 12.0 | 0.00 | 0.00 | 0.00 | 51 | 1011.3 |
| 20260506040004 | 44 | 63 | 3.0 | 7.0 | 0.00 | 0.00 | 0.00 | 77 | 1010.9 |
| 20260506034504 | 44 | 66 | 4.0 | 9.0 | 0.00 | 0.00 | 0.00 | 77 | 1010.6 |
| 20260506033005 | 44 | 73 | 4.0 | 10.0 | 0.00 | 0.00 | 0.00 | 77 | 1010.3 |
| 20260506031505 | 44 | 68 | 3.0 | 14.0 | 0.00 | 0.00 | 0.00 | 78 | 1010.3 |
| 20260506030005 | 44 | 69 | 5.0 | 12.0 | 0.00 | 0.00 | 0.00 | 81 | 1010.3 |
| 20260506020004 | 44 | 86 | 3.0 | 12.0 | 0.00 | 0.00 | 0.00 | 92 | 1010.3 |
| 20260506014504 | 44 | 85 | 3.0 | 10.0 | 0.00 | 0.00 | 0.00 | 93 | 1010.2 |
| 20260506011504 | 43 | 79 | 3.0 | 8.0 | 0.00 | 0.00 | 0.00 | 94 | 1009.8 |
| 20260505234503 | 44 | 68 | 5.0 | 8.0 | 0.00 | 0.00 | 0.00 | 93 | 1009.2 |
| 20260505231504 | 43 | 71 | 6.0 | 10.0 | 0.00 | 0.00 | 0.00 | 93 | 1009.1 |
| 20260505230004 | 43 | 63 | 3.0 | 6.0 | 0.00 | 0.00 | 0.00 | 92 | 1009.1 |
| 20260505224504 | 43 | 56 | 2.0 | 3.0 | 0.00 | 0.00 | 0.00 | 91 | 1009.1 |
| 20260505221504 | 44 | 81 | 2.0 | 3.0 | 0.00 | 0.00 | 0.00 | 91 | 1009.1 |
| 20260505214504 | 44 | 50 | 0.0 | 3.0 | 0.00 | 0.00 | 0.00 | 91 | 1008.7 |
| 20260505213005 | 44 | 98 | 1.0 | 3.0 | 0.00 | 0.00 | 0.00 | 90 | 1008.7 |
| 20260505211504 | 45 | 84 | 1.0 | 2.0 | 0.00 | 0.00 | 0.00 | 89 | 1008.7 |
| 20260505210005 | 45 | 47 | 0.0 | 3.0 | 0.00 | 0.00 | 0.00 | 89 | 1008.4 |
| 20260505204504 | 45 | 58 | 1.0 | 6.0 | 0.00 | 0.00 | 0.00 | 88 | 1008.4 |
| 20260505201504 | 46 | 100 | 2.0 | 6.0 | 0.00 | 0.00 | 0.00 | 86 | 1008.3 |
| 20260505193005 | 49 | 107 | 1.0 | 7.0 | 0.00 | 0.00 | 0.00 | 79 | 1007.9 |
| 20260505184503 | 53 | 107 | 2.0 | 7.0 | 0.00 | 0.00 | 0.00 | 69 | 1007.7 |
| 20260505181503 | 55 | 86 | 3.0 | 8.0 | 0.00 | 0.00 | 0.00 | 64 | 1007.7 |
| 20260505180003 | 55 | 123 | 2.0 | 8.0 | 0.00 | 0.00 | 0.00 | 62 | 1007.6 |
| 20260505173004 | 57 | 90 | 3.0 | 10.0 | 0.00 | 0.00 | 0.00 | 60 | 1007.5 |
| 20260505171503 | 57 | 85 | 5.0 | 8.0 | 0.00 | 0.00 | 0.00 | 57 | 1007.4 |
| 20260505170004 | 58 | 76 | 6.0 | 12.0 | 0.00 | 0.00 | 0.00 | 55 | 1007.3 |
| 20260505163004 | 58 | 133 | 3.0 | 9.0 | 0.00 | 0.00 | 0.00 | 54 | 1007.4 |
| 20260505161503 | 58 | 70 | 5.0 | 12.0 | 0.00 | 0.00 | 0.00 | 51 | 1007.4 |